TimeCST,TemperatureF,Dew PointF,Humidity,Sea Level PressureIn,VisibilityMPH,Wind Direction,Wind SpeedMPH,Gust SpeedMPH,PrecipitationIn,Events,Conditions,WindDirDegrees,DateUTC
12:50 AM,51.8,44.6,76,30.22,10.0,Calm,Calm,-,N/A,,Clear,0,2013-01-22 06:50:00
1:50 AM,50.0,44.6,82,30.22,10.0,Calm,Calm,-,N/A,,Clear,0,2013-01-22 07:50:00
2:50 AM,51.8,44.6,76,30.23,10.0,North,3.5,-,N/A,,Clear,360,2013-01-22 08:50:00
3:50 AM,50.0,44.6,82,30.23,10.0,Calm,Calm,-,N/A,,Clear,0,2013-01-22 09:50:00
4:50 AM,50.0,44.6,82,30.24,10.0,Calm,Calm,-,N/A,,Clear,0,2013-01-22 10:50:00
5:50 AM,50.0,44.6,82,30.26,10.0,Calm,Calm,-,N/A,,Clear,0,2013-01-22 11:50:00
6:50 AM,50.0,48.2,94,30.29,5.0,NNE,3.5,-,N/A,,Partly Cloudy,30,2013-01-22 12:50:00
7:50 AM,50.0,48.2,94,30.30,5.0,Calm,Calm,-,N/A,,Haze,0,2013-01-22 13:50:00
8:50 AM,53.6,51.8,94,30.32,5.0,East,3.5,-,N/A,,Haze,80,2013-01-22 14:50:00
9:50 AM,59.0,53.6,82,30.34,7.0,ENE,6.9,-,N/A,,Clear,70,2013-01-22 15:50:00
10:50 AM,62.6,53.6,72,30.34,8.0,East,3.5,-,N/A,,Clear,100,2013-01-22 16:50:00
11:50 AM,64.4,51.8,64,30.32,10.0,East,5.8,-,N/A,,Clear,80,2013-01-22 17:50:00
12:50 PM,68.0,46.4,46,30.29,10.0,SSE,5.8,-,N/A,,Clear,160,2013-01-22 18:50:00
1:50 PM,71.6,44.6,38,30.26,10.0,East,8.1,-,N/A,,Partly Cloudy,100,2013-01-22 19:50:00
2:50 PM,71.6,42.8,35,30.26,10.0,ESE,6.9,-,N/A,,Partly Cloudy,110,2013-01-22 20:50:00
3:50 PM,69.8,50.0,49,30.25,10.0,ESE,10.4,-,N/A,,Clear,120,2013-01-22 21:50:00
4:50 PM,68.0,50.0,52,30.26,10.0,ESE,6.9,-,N/A,,Partly Cloudy,110,2013-01-22 22:50:00
6:50 PM,57.2,48.2,72,30.27,10.0,ESE,4.6,-,N/A,,Clear,120,2013-01-23 00:50:00
7:50 PM,55.4,48.2,77,30.28,10.0,Calm,Calm,-,N/A,,Clear,0,2013-01-23 01:50:00
8:50 PM,53.6,50.0,88,30.29,10.0,Calm,Calm,-,N/A,,Clear,0,2013-01-23 02:50:00
9:50 PM,51.8,50.0,94,30.30,4.0,Calm,Calm,-,N/A,Fog,Patches of Fog,0,2013-01-23 03:50:00
10:50 PM,51.8,50.0,94,30.31,2.0,Calm,Calm,-,N/A,Fog,Patches of Fog,0,2013-01-23 04:50:00
11:50 PM,51.8,50.0,94,30.33,3.0,Calm,Calm,-,N/A,Fog,Shallow Fog,0,2013-01-23 05:50:00